owner,sensor,date,latitude,longitude,air_temperature,qcFlag 
WAVCIS,ioos:station:WAVCIS:CSI15:1,2011-06-01T00:00:00Z,28.8332,-90.8320,32.37,11111222 
WAVCIS,ioos:station:WAVCIS:CSI15:1,2011-06-01T01:00:00Z,28.8332,-90.8320,32.18,11111222 
WAVCIS,ioos:station:WAVCIS:CSI15:1,2011-06-01T02:00:00Z,28.8332,-90.8320,32.75,11111222 
WAVCIS,ioos:station:WAVCIS:CSI15:1,2011-06-01T03:00:00Z,28.8332,-90.8320,31.79,11111222 
WAVCIS,ioos:station:WAVCIS:CSI15:1,2011-06-01T04:00:00Z,28.8332,-90.8320,31.42,11111222 
WAVCIS,ioos:station:WAVCIS:CSI15:1,2011-06-01T05:00:00Z,28.8332,-90.8320,31.2,11111222 
WAVCIS,ioos:station:WAVCIS:CSI15:1,2011-06-01T06:00:00Z,28.8332,-90.8320,31.08,11111222 
WAVCIS,ioos:station:WAVCIS:CSI15:1,2011-06-01T07:00:00Z,28.8332,-90.8320,31.02,11111222 
WAVCIS,ioos:station:WAVCIS:CSI15:1,2011-06-01T08:00:00Z,28.8332,-90.8320,30.88,11111222 
WAVCIS,ioos:station:WAVCIS:CSI15:1,2011-06-01T09:00:00Z,28.8332,-90.8320,30.83,11111222 
WAVCIS,ioos:station:WAVCIS:CSI15:1,2011-06-01T10:00:00Z,28.8332,-90.8320,30.8,11111222 
WAVCIS,ioos:station:WAVCIS:CSI15:1,2011-06-01T11:00:00Z,28.8332,-90.8320,30.92,11111222 
WAVCIS,ioos:station:WAVCIS:CSI15:1,2011-06-01T12:00:00Z,28.8332,-90.8320,31.18,11111222 
WAVCIS,ioos:station:WAVCIS:CSI15:1,2011-06-01T13:00:00Z,28.8332,-90.8320,30.86,11111222 
WAVCIS,ioos:station:WAVCIS:CSI15:1,2011-06-01T14:00:00Z,28.8332,-90.8320,31.58,11111222 
WAVCIS,ioos:station:WAVCIS:CSI15:1,2011-06-01T15:00:00Z,28.8332,-90.8320,31.98,11111222 
WAVCIS,ioos:station:WAVCIS:CSI15:1,2011-06-01T16:00:00Z,28.8332,-90.8320,32.1,11111222 
WAVCIS,ioos:station:WAVCIS:CSI15:1,2011-06-01T17:00:00Z,28.8332,-90.8320,32.79,11111222 
WAVCIS,ioos:station:WAVCIS:CSI15:1,2011-06-01T18:00:00Z,28.8332,-90.8320,33.23,11111222 
WAVCIS,ioos:station:WAVCIS:CSI15:1,2011-06-01T19:00:00Z,28.8332,-90.8320,33.39,11111222 
WAVCIS,ioos:station:WAVCIS:CSI15:1,2011-06-01T20:00:00Z,28.8332,-90.8320,33.8,11111222 
WAVCIS,ioos:station:WAVCIS:CSI15:1,2011-06-01T21:00:00Z,28.8332,-90.8320,34.51,11111222 
WAVCIS,ioos:station:WAVCIS:CSI15:1,2011-06-01T22:00:00Z,28.8332,-90.8320,38.84,11111222 
WAVCIS,ioos:station:WAVCIS:CSI15:1,2011-06-01T23:00:00Z,28.8332,-90.8320,40.49,11111222 
WAVCIS,ioos:station:WAVCIS:CSI15:1,2011-06-02T00:00:00Z,28.8332,-90.8320,35.35,11111222 
WAVCIS,ioos:station:WAVCIS:CSI15:1,2011-06-02T01:00:00Z,28.8332,-90.8320,33.82,11111222 
WAVCIS,ioos:station:WAVCIS:CSI15:1,2011-06-02T02:00:00Z,28.8332,-90.8320,33.67,11111222 
WAVCIS,ioos:station:WAVCIS:CSI15:1,2011-06-02T03:00:00Z,28.8332,-90.8320,34.18,11111222 
WAVCIS,ioos:station:WAVCIS:CSI15:1,2011-06-02T04:00:00Z,28.8332,-90.8320,33.26,11111222 
WAVCIS,ioos:station:WAVCIS:CSI15:1,2011-06-02T05:00:00Z,28.8332,-90.8320,35.1,11111222 
WAVCIS,ioos:station:WAVCIS:CSI15:1,2011-06-02T06:00:00Z,28.8332,-90.8320,36.78,11111222 
WAVCIS,ioos:station:WAVCIS:CSI15:1,2011-06-02T07:00:00Z,28.8332,-90.8320,35.96,11111222 
WAVCIS,ioos:station:WAVCIS:CSI15:1,2011-06-02T08:00:00Z,28.8332,-90.8320,33.02,11111222 
WAVCIS,ioos:station:WAVCIS:CSI15:1,2011-06-02T09:00:00Z,28.8332,-90.8320,36.73,11111222 
WAVCIS,ioos:station:WAVCIS:CSI15:1,2011-06-02T10:00:00Z,28.8332,-90.8320,33.16,11111222 
WAVCIS,ioos:station:WAVCIS:CSI15:1,2011-06-02T11:00:00Z,28.8332,-90.8320,30.68,11111222 
WAVCIS,ioos:station:WAVCIS:CSI15:1,2011-06-02T12:00:00Z,28.8332,-90.8320,30.95,11111222 
WAVCIS,ioos:station:WAVCIS:CSI15:1,2011-06-02T13:00:00Z,28.8332,-90.8320,31.94,11111222 
WAVCIS,ioos:station:WAVCIS:CSI15:1,2011-06-02T14:00:00Z,28.8332,-90.8320,35.0,11111222 
WAVCIS,ioos:station:WAVCIS:CSI15:1,2011-06-02T15:00:00Z,28.8332,-90.8320,35.93,11111222 
WAVCIS,ioos:station:WAVCIS:CSI15:1,2011-06-02T16:00:00Z,28.8332,-90.8320,37.14,11111222 
WAVCIS,ioos:station:WAVCIS:CSI15:1,2011-06-02T17:00:00Z,28.8332,-90.8320,37.81,11111222 
WAVCIS,ioos:station:WAVCIS:CSI15:1,2011-06-02T18:00:00Z,28.8332,-90.8320,37.01,11111222 
WAVCIS,ioos:station:WAVCIS:CSI15:1,2011-06-02T19:00:00Z,28.8332,-90.8320,37.54,11111222 
WAVCIS,ioos:station:WAVCIS:CSI15:1,2011-06-02T20:00:00Z,28.8332,-90.8320,34.72,11111222 
WAVCIS,ioos:station:WAVCIS:CSI15:1,2011-06-02T21:00:00Z,28.8332,-90.8320,32.31,11111222 
WAVCIS,ioos:station:WAVCIS:CSI15:1,2011-06-02T22:00:00Z,28.8332,-90.8320,32.43,11111222 
WAVCIS,ioos:station:WAVCIS:CSI15:1,2011-06-02T23:00:00Z,28.8332,-90.8320,32.33,11111222 
WAVCIS,ioos:station:WAVCIS:CSI15:1,2011-06-03T00:00:00Z,28.8332,-90.8320,32.2,11111222 
WAVCIS,ioos:station:WAVCIS:CSI15:1,2011-06-03T01:00:00Z,28.8332,-90.8320,31.92,11111222 
WAVCIS,ioos:station:WAVCIS:CSI15:1,2011-06-03T02:00:00Z,28.8332,-90.8320,32.06,11111222 
WAVCIS,ioos:station:WAVCIS:CSI15:1,2011-06-03T03:00:00Z,28.8332,-90.8320,34.07,11111222 
WAVCIS,ioos:station:WAVCIS:CSI15:1,2011-06-03T04:00:00Z,28.8332,-90.8320,31.85,11111222 
WAVCIS,ioos:station:WAVCIS:CSI15:1,2011-06-03T05:00:00Z,28.8332,-90.8320,33.97,11111222 
WAVCIS,ioos:station:WAVCIS:CSI15:1,2011-06-03T06:00:00Z,28.8332,-90.8320,31.5,11111222 
WAVCIS,ioos:station:WAVCIS:CSI15:1,2011-06-03T07:00:00Z,28.8332,-90.8320,32.85,11111222 
WAVCIS,ioos:station:WAVCIS:CSI15:1,2011-06-03T08:00:00Z,28.8332,-90.8320,31.58,11111222 
WAVCIS,ioos:station:WAVCIS:CSI15:1,2011-06-03T09:00:00Z,28.8332,-90.8320,33.21,11111222 
WAVCIS,ioos:station:WAVCIS:CSI15:1,2011-06-03T10:00:00Z,28.8332,-90.8320,33.7,11111222 
WAVCIS,ioos:station:WAVCIS:CSI15:1,2011-06-03T11:00:00Z,28.8332,-90.8320,32.14,11111222 
WAVCIS,ioos:station:WAVCIS:CSI15:1,2011-06-03T12:00:00Z,28.8332,-90.8320,31.5,11111222 
WAVCIS,ioos:station:WAVCIS:CSI15:1,2011-06-03T13:00:00Z,28.8332,-90.8320,31.58,11111222 
WAVCIS,ioos:station:WAVCIS:CSI15:1,2011-06-03T14:00:00Z,28.8332,-90.8320,31.5,11111222 
WAVCIS,ioos:station:WAVCIS:CSI15:1,2011-06-03T15:00:00Z,28.8332,-90.8320,31.65,11111222 
WAVCIS,ioos:station:WAVCIS:CSI15:1,2011-06-03T16:00:00Z,28.8332,-90.8320,36.08,11111222 
WAVCIS,ioos:station:WAVCIS:CSI15:1,2011-06-03T17:00:00Z,28.8332,-90.8320,35.08,11111222 
WAVCIS,ioos:station:WAVCIS:CSI15:1,2011-06-03T18:00:00Z,28.8332,-90.8320,35.61,11111222 
WAVCIS,ioos:station:WAVCIS:CSI15:1,2011-06-03T19:00:00Z,28.8332,-90.8320,35.07,11111222 
WAVCIS,ioos:station:WAVCIS:CSI15:1,2011-06-03T20:00:00Z,28.8332,-90.8320,35.56,11111222 
WAVCIS,ioos:station:WAVCIS:CSI15:1,2011-06-03T21:00:00Z,28.8332,-90.8320,35.6,11111222 
WAVCIS,ioos:station:WAVCIS:CSI15:1,2011-06-03T22:00:00Z,28.8332,-90.8320,35.27,11111222 
WAVCIS,ioos:station:WAVCIS:CSI15:1,2011-06-03T23:00:00Z,28.8332,-90.8320,35.06,11111222 
WAVCIS,ioos:station:WAVCIS:CSI15:1,2011-06-04T00:00:00Z,28.8332,-90.8320,35.29,11111222 
WAVCIS,ioos:station:WAVCIS:CSI15:1,2011-06-04T01:00:00Z,28.8332,-90.8320,34.85,11111222 
WAVCIS,ioos:station:WAVCIS:CSI15:1,2011-06-04T02:00:00Z,28.8332,-90.8320,34.55,11111222 
WAVCIS,ioos:station:WAVCIS:CSI15:1,2011-06-04T03:00:00Z,28.8332,-90.8320,34.99,11111222 
WAVCIS,ioos:station:WAVCIS:CSI15:1,2011-06-04T04:00:00Z,28.8332,-90.8320,34.7,11111222 
WAVCIS,ioos:station:WAVCIS:CSI15:1,2011-06-04T05:00:00Z,28.8332,-90.8320,35.81,11111222 
WAVCIS,ioos:station:WAVCIS:CSI15:1,2011-06-04T06:00:00Z,28.8332,-90.8320,34.17,11111222 
WAVCIS,ioos:station:WAVCIS:CSI15:1,2011-06-04T07:00:00Z,28.8332,-90.8320,33.99,11111222 
WAVCIS,ioos:station:WAVCIS:CSI15:1,2011-06-04T08:00:00Z,28.8332,-90.8320,34.09,11111222 
WAVCIS,ioos:station:WAVCIS:CSI15:1,2011-06-04T09:00:00Z,28.8332,-90.8320,34.48,11111222 
WAVCIS,ioos:station:WAVCIS:CSI15:1,2011-06-04T10:00:00Z,28.8332,-90.8320,34.18,11111222 
WAVCIS,ioos:station:WAVCIS:CSI15:1,2011-06-04T11:00:00Z,28.8332,-90.8320,34.04,11111222 
WAVCIS,ioos:station:WAVCIS:CSI15:1,2011-06-04T12:00:00Z,28.8332,-90.8320,34.63,11111222 
WAVCIS,ioos:station:WAVCIS:CSI15:1,2011-06-04T13:00:00Z,28.8332,-90.8320,35.07,11111222 
WAVCIS,ioos:station:WAVCIS:CSI15:1,2011-06-04T14:00:00Z,28.8332,-90.8320,34.65,11111222 
WAVCIS,ioos:station:WAVCIS:CSI15:1,2011-06-04T15:00:00Z,28.8332,-90.8320,35.27,11111222 
WAVCIS,ioos:station:WAVCIS:CSI15:1,2011-06-04T16:00:00Z,28.8332,-90.8320,35.33,11111222 
WAVCIS,ioos:station:WAVCIS:CSI15:1,2011-06-04T17:00:00Z,28.8332,-90.8320,35.21,11111222 
WAVCIS,ioos:station:WAVCIS:CSI15:1,2011-06-04T18:00:00Z,28.8332,-90.8320,35.64,11111222 
WAVCIS,ioos:station:WAVCIS:CSI15:1,2011-06-04T19:00:00Z,28.8332,-90.8320,36.66,11111222 
WAVCIS,ioos:station:WAVCIS:CSI15:1,2011-06-04T20:00:00Z,28.8332,-90.8320,37.13,11111222 
WAVCIS,ioos:station:WAVCIS:CSI15:1,2011-06-04T21:00:00Z,28.8332,-90.8320,37.74,11111222 
WAVCIS,ioos:station:WAVCIS:CSI15:1,2011-06-04T22:00:00Z,28.8332,-90.8320,37.36,11111222 
WAVCIS,ioos:station:WAVCIS:CSI15:1,2011-06-04T23:00:00Z,28.8332,-90.8320,37.62,11111222 
WAVCIS,ioos:station:WAVCIS:CSI15:1,2011-06-05T00:00:00Z,28.8332,-90.8320,37.38,11111222 
WAVCIS,ioos:station:WAVCIS:CSI15:1,2011-06-05T01:00:00Z,28.8332,-90.8320,36.69,11111222 
WAVCIS,ioos:station:WAVCIS:CSI15:1,2011-06-05T02:00:00Z,28.8332,-90.8320,36.32,11111222 
WAVCIS,ioos:station:WAVCIS:CSI15:1,2011-06-05T03:00:00Z,28.8332,-90.8320,35.7,11111222 
WAVCIS,ioos:station:WAVCIS:CSI15:1,2011-06-05T04:00:00Z,28.8332,-90.8320,36.17,11111222 
WAVCIS,ioos:station:WAVCIS:CSI15:1,2011-06-05T05:00:00Z,28.8332,-90.8320,36.23,11111222 
WAVCIS,ioos:station:WAVCIS:CSI15:1,2011-06-05T06:00:00Z,28.8332,-90.8320,35.93,11111222 
WAVCIS,ioos:station:WAVCIS:CSI15:1,2011-06-05T07:00:00Z,28.8332,-90.8320,35.61,11111222 
WAVCIS,ioos:station:WAVCIS:CSI15:1,2011-06-05T08:00:00Z,28.8332,-90.8320,35.53,11111222 
WAVCIS,ioos:station:WAVCIS:CSI15:1,2011-06-05T09:00:00Z,28.8332,-90.8320,35.42,11111222 
WAVCIS,ioos:station:WAVCIS:CSI15:1,2011-06-05T10:00:00Z,28.8332,-90.8320,35.77,11111222 
WAVCIS,ioos:station:WAVCIS:CSI15:1,2011-06-05T11:00:00Z,28.8332,-90.8320,35.28,11111222 
WAVCIS,ioos:station:WAVCIS:CSI15:1,2011-06-05T12:00:00Z,28.8332,-90.8320,35.51,11111222 
WAVCIS,ioos:station:WAVCIS:CSI15:1,2011-06-05T13:00:00Z,28.8332,-90.8320,35.92,11111222 
WAVCIS,ioos:station:WAVCIS:CSI15:1,2011-06-05T14:00:00Z,28.8332,-90.8320,35.95,11111222 
WAVCIS,ioos:station:WAVCIS:CSI15:1,2011-06-05T15:00:00Z,28.8332,-90.8320,38.61,11111222 
WAVCIS,ioos:station:WAVCIS:CSI15:1,2011-06-05T16:00:00Z,28.8332,-90.8320,39.37,11111222 
WAVCIS,ioos:station:WAVCIS:CSI15:1,2011-06-05T17:00:00Z,28.8332,-90.8320,35.47,11111222 
WAVCIS,ioos:station:WAVCIS:CSI15:1,2011-06-05T18:00:00Z,28.8332,-90.8320,33.26,11111222 
WAVCIS,ioos:station:WAVCIS:CSI15:1,2011-06-05T19:00:00Z,28.8332,-90.8320,31.82,11111222 
WAVCIS,ioos:station:WAVCIS:CSI15:1,2011-06-05T20:00:00Z,28.8332,-90.8320,32.46,11111222 
WAVCIS,ioos:station:WAVCIS:CSI15:1,2011-06-05T21:00:00Z,28.8332,-90.8320,33.13,11111222 
WAVCIS,ioos:station:WAVCIS:CSI15:1,2011-06-05T22:00:00Z,28.8332,-90.8320,33.48,11111222 
WAVCIS,ioos:station:WAVCIS:CSI15:1,2011-06-05T23:00:00Z,28.8332,-90.8320,33.42,11111222 
WAVCIS,ioos:station:WAVCIS:CSI15:1,2011-06-06T00:00:00Z,28.8332,-90.8320,33.65,11111222 
WAVCIS,ioos:station:WAVCIS:CSI15:1,2011-06-06T01:00:00Z,28.8332,-90.8320,34.15,11111222 
WAVCIS,ioos:station:WAVCIS:CSI15:1,2011-06-06T02:00:00Z,28.8332,-90.8320,33.7,11111222 
WAVCIS,ioos:station:WAVCIS:CSI15:1,2011-06-06T03:00:00Z,28.8332,-90.8320,32.67,11111222 
WAVCIS,ioos:station:WAVCIS:CSI15:1,2011-06-06T04:00:00Z,28.8332,-90.8320,32.24,11111222 
WAVCIS,ioos:station:WAVCIS:CSI15:1,2011-06-06T05:00:00Z,28.8332,-90.8320,32.12,11111222 
WAVCIS,ioos:station:WAVCIS:CSI15:1,2011-06-06T06:00:00Z,28.8332,-90.8320,31.85,11111222 
WAVCIS,ioos:station:WAVCIS:CSI15:1,2011-06-06T07:00:00Z,28.8332,-90.8320,33.01,11111222 
WAVCIS,ioos:station:WAVCIS:CSI15:1,2011-06-06T08:00:00Z,28.8332,-90.8320,33.55,11111222 
WAVCIS,ioos:station:WAVCIS:CSI15:1,2011-06-06T09:00:00Z,28.8332,-90.8320,36.0,11111222 
WAVCIS,ioos:station:WAVCIS:CSI15:1,2011-06-06T10:00:00Z,28.8332,-90.8320,35.48,11111222 
WAVCIS,ioos:station:WAVCIS:CSI15:1,2011-06-06T11:00:00Z,28.8332,-90.8320,34.66,11111222 
WAVCIS,ioos:station:WAVCIS:CSI15:1,2011-06-06T12:00:00Z,28.8332,-90.8320,35.19,11111222 
WAVCIS,ioos:station:WAVCIS:CSI15:1,2011-06-06T13:00:00Z,28.8332,-90.8320,35.61,11111222 
WAVCIS,ioos:station:WAVCIS:CSI15:1,2011-06-06T14:00:00Z,28.8332,-90.8320,35.14,11111222 
WAVCIS,ioos:station:WAVCIS:CSI15:1,2011-06-06T15:00:00Z,28.8332,-90.8320,35.51,11111222 
WAVCIS,ioos:station:WAVCIS:CSI15:1,2011-06-06T16:00:00Z,28.8332,-90.8320,35.57,11111222 
WAVCIS,ioos:station:WAVCIS:CSI15:1,2011-06-06T17:00:00Z,28.8332,-90.8320,35.68,11111222 
WAVCIS,ioos:station:WAVCIS:CSI15:1,2011-06-06T18:00:00Z,28.8332,-90.8320,35.64,11111222 
WAVCIS,ioos:station:WAVCIS:CSI15:1,2011-06-06T19:00:00Z,28.8332,-90.8320,35.47,11111222 
WAVCIS,ioos:station:WAVCIS:CSI15:1,2011-06-06T20:00:00Z,28.8332,-90.8320,35.63,11111222 
WAVCIS,ioos:station:WAVCIS:CSI15:1,2011-06-06T21:00:00Z,28.8332,-90.8320,35.55,11111222 
WAVCIS,ioos:station:WAVCIS:CSI15:1,2011-06-06T22:00:00Z,28.8332,-90.8320,35.63,11111222 
WAVCIS,ioos:station:WAVCIS:CSI15:1,2011-06-06T23:00:00Z,28.8332,-90.8320,35.57,11111222 
WAVCIS,ioos:station:WAVCIS:CSI15:1,2011-06-07T00:00:00Z,28.8332,-90.8320,37.24,11111222 
WAVCIS,ioos:station:WAVCIS:CSI15:1,2011-06-07T01:00:00Z,28.8332,-90.8320,36.28,11111222 
WAVCIS,ioos:station:WAVCIS:CSI15:1,2011-06-07T02:00:00Z,28.8332,-90.8320,36.49,11111222 
WAVCIS,ioos:station:WAVCIS:CSI15:1,2011-06-07T03:00:00Z,28.8332,-90.8320,34.67,11111222 
WAVCIS,ioos:station:WAVCIS:CSI15:1,2011-06-07T04:00:00Z,28.8332,-90.8320,35.03,11111222 
WAVCIS,ioos:station:WAVCIS:CSI15:1,2011-06-07T05:00:00Z,28.8332,-90.8320,35.34,11111222 
WAVCIS,ioos:station:WAVCIS:CSI15:1,2011-06-07T06:00:00Z,28.8332,-90.8320,35.51,11111222 
WAVCIS,ioos:station:WAVCIS:CSI15:1,2011-06-07T07:00:00Z,28.8332,-90.8320,35.62,11111222 
WAVCIS,ioos:station:WAVCIS:CSI15:1,2011-06-07T08:00:00Z,28.8332,-90.8320,35.41,11111222 
WAVCIS,ioos:station:WAVCIS:CSI15:1,2011-06-07T09:00:00Z,28.8332,-90.8320,35.0,11111222 
WAVCIS,ioos:station:WAVCIS:CSI15:1,2011-06-07T10:00:00Z,28.8332,-90.8320,34.11,11111222 
WAVCIS,ioos:station:WAVCIS:CSI15:1,2011-06-07T11:00:00Z,28.8332,-90.8320,35.55,11111222 
WAVCIS,ioos:station:WAVCIS:CSI15:1,2011-06-07T12:00:00Z,28.8332,-90.8320,34.86,11111222 
WAVCIS,ioos:station:WAVCIS:CSI15:1,2011-06-07T13:00:00Z,28.8332,-90.8320,35.0,11111222 
WAVCIS,ioos:station:WAVCIS:CSI15:1,2011-06-07T14:00:00Z,28.8332,-90.8320,35.77,11111222 
WAVCIS,ioos:station:WAVCIS:CSI15:1,2011-06-07T15:00:00Z,28.8332,-90.8320,39.11,11111222 
WAVCIS,ioos:station:WAVCIS:CSI15:1,2011-06-07T16:00:00Z,28.8332,-90.8320,38.95,11111222 
WAVCIS,ioos:station:WAVCIS:CSI15:1,2011-06-07T17:00:00Z,28.8332,-90.8320,40.48,11111222 
WAVCIS,ioos:station:WAVCIS:CSI15:1,2011-06-07T18:00:00Z,28.8332,-90.8320,40.18,11111222 
WAVCIS,ioos:station:WAVCIS:CSI15:1,2011-06-07T19:00:00Z,28.8332,-90.8320,38.27,11111222 
WAVCIS,ioos:station:WAVCIS:CSI15:1,2011-06-07T20:00:00Z,28.8332,-90.8320,39.12,11111222 
WAVCIS,ioos:station:WAVCIS:CSI15:1,2011-06-07T21:00:00Z,28.8332,-90.8320,38.78,11111222 
WAVCIS,ioos:station:WAVCIS:CSI15:1,2011-06-07T22:00:00Z,28.8332,-90.8320,37.99,11111222 
WAVCIS,ioos:station:WAVCIS:CSI15:1,2011-06-07T23:00:00Z,28.8332,-90.8320,38.44,11111222 
WAVCIS,ioos:station:WAVCIS:CSI15:1,2011-06-08T00:00:00Z,28.8332,-90.8320,37.81,11111222 
WAVCIS,ioos:station:WAVCIS:CSI15:1,2011-06-08T01:00:00Z,28.8332,-90.8320,37.66,11111222 
WAVCIS,ioos:station:WAVCIS:CSI15:1,2011-06-08T02:00:00Z,28.8332,-90.8320,37.42,11111222 
WAVCIS,ioos:station:WAVCIS:CSI15:1,2011-06-08T03:00:00Z,28.8332,-90.8320,37.07,11111222 
WAVCIS,ioos:station:WAVCIS:CSI15:1,2011-06-08T04:00:00Z,28.8332,-90.8320,37.91,11111222 
WAVCIS,ioos:station:WAVCIS:CSI15:1,2011-06-08T05:00:00Z,28.8332,-90.8320,40.79,11111222 
WAVCIS,ioos:station:WAVCIS:CSI15:1,2011-06-08T06:00:00Z,28.8332,-90.8320,36.59,11111222 
WAVCIS,ioos:station:WAVCIS:CSI15:1,2011-06-08T07:00:00Z,28.8332,-90.8320,35.98,11111222 
WAVCIS,ioos:station:WAVCIS:CSI15:1,2011-06-08T08:00:00Z,28.8332,-90.8320,35.61,11111222 
WAVCIS,ioos:station:WAVCIS:CSI15:1,2011-06-08T09:00:00Z,28.8332,-90.8320,37.06,11111222 
WAVCIS,ioos:station:WAVCIS:CSI15:1,2011-06-08T10:00:00Z,28.8332,-90.8320,37.79,11111222 
WAVCIS,ioos:station:WAVCIS:CSI15:1,2011-06-08T11:00:00Z,28.8332,-90.8320,36.9,11111222 
WAVCIS,ioos:station:WAVCIS:CSI15:1,2011-06-08T12:00:00Z,28.8332,-90.8320,37.31,11111222 
WAVCIS,ioos:station:WAVCIS:CSI15:1,2011-06-08T13:00:00Z,28.8332,-90.8320,38.43,11111222 
WAVCIS,ioos:station:WAVCIS:CSI15:1,2011-06-08T14:00:00Z,28.8332,-90.8320,38.83,11111222 
WAVCIS,ioos:station:WAVCIS:CSI15:1,2011-06-08T15:00:00Z,28.8332,-90.8320,40.61,11111222 
WAVCIS,ioos:station:WAVCIS:CSI15:1,2011-06-08T16:00:00Z,28.8332,-90.8320,39.31,11111222 
WAVCIS,ioos:station:WAVCIS:CSI15:1,2011-06-08T17:00:00Z,28.8332,-90.8320,38.73,11111222 
WAVCIS,ioos:station:WAVCIS:CSI15:1,2011-06-08T18:00:00Z,28.8332,-90.8320,37.09,11111222 
WAVCIS,ioos:station:WAVCIS:CSI15:1,2011-06-08T19:00:00Z,28.8332,-90.8320,40.26,11111222 
WAVCIS,ioos:station:WAVCIS:CSI15:1,2011-06-08T20:00:00Z,28.8332,-90.8320,38.56,11111222 
WAVCIS,ioos:station:WAVCIS:CSI15:1,2011-06-08T21:00:00Z,28.8332,-90.8320,39.61,11111222 
WAVCIS,ioos:station:WAVCIS:CSI15:1,2011-06-08T22:00:00Z,28.8332,-90.8320,38.31,11111222 
WAVCIS,ioos:station:WAVCIS:CSI15:1,2011-06-08T23:00:00Z,28.8332,-90.8320,38.0,11111222 
WAVCIS,ioos:station:WAVCIS:CSI15:1,2011-06-09T00:00:00Z,28.8332,-90.8320,37.41,11111222 
WAVCIS,ioos:station:WAVCIS:CSI15:1,2011-06-09T01:00:00Z,28.8332,-90.8320,37.1,11111222 
WAVCIS,ioos:station:WAVCIS:CSI15:1,2011-06-09T02:00:00Z,28.8332,-90.8320,34.18,11111222 
WAVCIS,ioos:station:WAVCIS:CSI15:1,2011-06-09T03:00:00Z,28.8332,-90.8320,37.25,11111222 
WAVCIS,ioos:station:WAVCIS:CSI15:1,2011-06-09T04:00:00Z,28.8332,-90.8320,34.33,11111222 
WAVCIS,ioos:station:WAVCIS:CSI15:1,2011-06-09T05:00:00Z,28.8332,-90.8320,32.63,11111222 
WAVCIS,ioos:station:WAVCIS:CSI15:1,2011-06-09T06:00:00Z,28.8332,-90.8320,32.49,11111222 
WAVCIS,ioos:station:WAVCIS:CSI15:1,2011-06-09T07:00:00Z,28.8332,-90.8320,32.76,11111222 
WAVCIS,ioos:station:WAVCIS:CSI15:1,2011-06-09T08:00:00Z,28.8332,-90.8320,32.61,11111222 
WAVCIS,ioos:station:WAVCIS:CSI15:1,2011-06-09T09:00:00Z,28.8332,-90.8320,33.45,11111222 
WAVCIS,ioos:station:WAVCIS:CSI15:1,2011-06-09T10:00:00Z,28.8332,-90.8320,33.46,11111222 
WAVCIS,ioos:station:WAVCIS:CSI15:1,2011-06-09T11:00:00Z,28.8332,-90.8320,32.42,11111222 
WAVCIS,ioos:station:WAVCIS:CSI15:1,2011-06-09T12:00:00Z,28.8332,-90.8320,34.79,11111222 
WAVCIS,ioos:station:WAVCIS:CSI15:1,2011-06-09T13:00:00Z,28.8332,-90.8320,32.14,11111222 
WAVCIS,ioos:station:WAVCIS:CSI15:1,2011-06-09T14:00:00Z,28.8332,-90.8320,32.71,11111222 
WAVCIS,ioos:station:WAVCIS:CSI15:1,2011-06-09T15:00:00Z,28.8332,-90.8320,32.39,11111222 
WAVCIS,ioos:station:WAVCIS:CSI15:1,2011-06-09T16:00:00Z,28.8332,-90.8320,32.27,11111222 
WAVCIS,ioos:station:WAVCIS:CSI15:1,2011-06-09T17:00:00Z,28.8332,-90.8320,32.25,11111222 
WAVCIS,ioos:station:WAVCIS:CSI15:1,2011-06-09T18:00:00Z,28.8332,-90.8320,32.46,11111222 
WAVCIS,ioos:station:WAVCIS:CSI15:1,2011-06-09T19:00:00Z,28.8332,-90.8320,32.53,11111222 
WAVCIS,ioos:station:WAVCIS:CSI15:1,2011-06-09T20:00:00Z,28.8332,-90.8320,32.46,11111222 
WAVCIS,ioos:station:WAVCIS:CSI15:1,2011-06-09T21:00:00Z,28.8332,-90.8320,32.81,11111222 
WAVCIS,ioos:station:WAVCIS:CSI15:1,2011-06-09T22:00:00Z,28.8332,-90.8320,32.83,11111222 
WAVCIS,ioos:station:WAVCIS:CSI15:1,2011-06-09T23:00:00Z,28.8332,-90.8320,32.83,11111222 
WAVCIS,ioos:station:WAVCIS:CSI15:1,2011-06-10T00:00:00Z,28.8332,-90.8320,32.93,11111222 
WAVCIS,ioos:station:WAVCIS:CSI15:1,2011-06-10T01:00:00Z,28.8332,-90.8320,32.53,11111222 
WAVCIS,ioos:station:WAVCIS:CSI15:1,2011-06-10T02:00:00Z,28.8332,-90.8320,32.69,11111222 
WAVCIS,ioos:station:WAVCIS:CSI15:1,2011-06-10T03:00:00Z,28.8332,-90.8320,32.27,11111222 
WAVCIS,ioos:station:WAVCIS:CSI15:1,2011-06-10T04:00:00Z,28.8332,-90.8320,32.25,11111222 
WAVCIS,ioos:station:WAVCIS:CSI15:1,2011-06-10T05:00:00Z,28.8332,-90.8320,36.31,11111222 
WAVCIS,ioos:station:WAVCIS:CSI15:1,2011-06-10T06:00:00Z,28.8332,-90.8320,32.66,11111222 
WAVCIS,ioos:station:WAVCIS:CSI15:1,2011-06-10T07:00:00Z,28.8332,-90.8320,32.25,11111222 
WAVCIS,ioos:station:WAVCIS:CSI15:1,2011-06-10T08:00:00Z,28.8332,-90.8320,31.82,11111222 
WAVCIS,ioos:station:WAVCIS:CSI15:1,2011-06-10T09:00:00Z,28.8332,-90.8320,32.05,11111222 
WAVCIS,ioos:station:WAVCIS:CSI15:1,2011-06-10T10:00:00Z,28.8332,-90.8320,32.76,11111222 
WAVCIS,ioos:station:WAVCIS:CSI15:1,2011-06-10T11:00:00Z,28.8332,-90.8320,31.81,11111222 
WAVCIS,ioos:station:WAVCIS:CSI15:1,2011-06-10T12:00:00Z,28.8332,-90.8320,32.9,11111222 
WAVCIS,ioos:station:WAVCIS:CSI15:1,2011-06-10T13:00:00Z,28.8332,-90.8320,33.17,11111222 
WAVCIS,ioos:station:WAVCIS:CSI15:1,2011-06-10T14:00:00Z,28.8332,-90.8320,32.97,11111222 
WAVCIS,ioos:station:WAVCIS:CSI15:1,2011-06-10T15:00:00Z,28.8332,-90.8320,32.53,11111222 
WAVCIS,ioos:station:WAVCIS:CSI15:1,2011-06-10T16:00:00Z,28.8332,-90.8320,32.52,11111222 
WAVCIS,ioos:station:WAVCIS:CSI15:1,2011-06-10T17:00:00Z,28.8332,-90.8320,32.64,11111222 
WAVCIS,ioos:station:WAVCIS:CSI15:1,2011-06-10T18:00:00Z,28.8332,-90.8320,32.68,11111222 
WAVCIS,ioos:station:WAVCIS:CSI15:1,2011-06-10T19:00:00Z,28.8332,-90.8320,32.8,11111222 
WAVCIS,ioos:station:WAVCIS:CSI15:1,2011-06-10T20:00:00Z,28.8332,-90.8320,33.05,11111222 
WAVCIS,ioos:station:WAVCIS:CSI15:1,2011-06-10T21:00:00Z,28.8332,-90.8320,33.25,11111222 
WAVCIS,ioos:station:WAVCIS:CSI15:1,2011-06-10T22:00:00Z,28.8332,-90.8320,33.55,11111222 
WAVCIS,ioos:station:WAVCIS:CSI15:1,2011-06-10T23:00:00Z,28.8332,-90.8320,33.98,11111222 
WAVCIS,ioos:station:WAVCIS:CSI15:1,2011-06-11T00:00:00Z,28.8332,-90.8320,33.84,11111222 
WAVCIS,ioos:station:WAVCIS:CSI15:1,2011-06-11T01:00:00Z,28.8332,-90.8320,34.88,11111222 
WAVCIS,ioos:station:WAVCIS:CSI15:1,2011-06-11T02:00:00Z,28.8332,-90.8320,33.3,11111222 
WAVCIS,ioos:station:WAVCIS:CSI15:1,2011-06-11T03:00:00Z,28.8332,-90.8320,33.02,11111222 
WAVCIS,ioos:station:WAVCIS:CSI15:1,2011-06-11T04:00:00Z,28.8332,-90.8320,35.16,11111222 
WAVCIS,ioos:station:WAVCIS:CSI15:1,2011-06-11T05:00:00Z,28.8332,-90.8320,33.23,11111222 
WAVCIS,ioos:station:WAVCIS:CSI15:1,2011-06-11T06:00:00Z,28.8332,-90.8320,32.06,11111222 
WAVCIS,ioos:station:WAVCIS:CSI15:1,2011-06-11T07:00:00Z,28.8332,-90.8320,33.38,11111222 
WAVCIS,ioos:station:WAVCIS:CSI15:1,2011-06-11T08:00:00Z,28.8332,-90.8320,33.37,11111222 
WAVCIS,ioos:station:WAVCIS:CSI15:1,2011-06-11T09:00:00Z,28.8332,-90.8320,31.87,11111222 
WAVCIS,ioos:station:WAVCIS:CSI15:1,2011-06-11T10:00:00Z,28.8332,-90.8320,32.65,11111222 
WAVCIS,ioos:station:WAVCIS:CSI15:1,2011-06-11T11:00:00Z,28.8332,-90.8320,31.47,11111222 
WAVCIS,ioos:station:WAVCIS:CSI15:1,2011-06-11T12:00:00Z,28.8332,-90.8320,31.8,11111222 
WAVCIS,ioos:station:WAVCIS:CSI15:1,2011-06-11T13:00:00Z,28.8332,-90.8320,32.15,11111222 
WAVCIS,ioos:station:WAVCIS:CSI15:1,2011-06-11T14:00:00Z,28.8332,-90.8320,32.03,11111222 
WAVCIS,ioos:station:WAVCIS:CSI15:1,2011-06-11T15:00:00Z,28.8332,-90.8320,32.09,11111222 
WAVCIS,ioos:station:WAVCIS:CSI15:1,2011-06-11T16:00:00Z,28.8332,-90.8320,32.1,11111222 
WAVCIS,ioos:station:WAVCIS:CSI15:1,2011-06-11T17:00:00Z,28.8332,-90.8320,32.09,11111222 
WAVCIS,ioos:station:WAVCIS:CSI15:1,2011-06-11T18:00:00Z,28.8332,-90.8320,32.09,11111222 
WAVCIS,ioos:station:WAVCIS:CSI15:1,2011-06-11T19:00:00Z,28.8332,-90.8320,32.2,11111222 
WAVCIS,ioos:station:WAVCIS:CSI15:1,2011-06-11T20:00:00Z,28.8332,-90.8320,32.31,11111222 
WAVCIS,ioos:station:WAVCIS:CSI15:1,2011-06-11T21:00:00Z,28.8332,-90.8320,32.44,11111222 
WAVCIS,ioos:station:WAVCIS:CSI15:1,2011-06-11T22:00:00Z,28.8332,-90.8320,33.68,11111222 
WAVCIS,ioos:station:WAVCIS:CSI15:1,2011-06-11T23:00:00Z,28.8332,-90.8320,32.17,11111222 
WAVCIS,ioos:station:WAVCIS:CSI15:1,2011-06-12T00:00:00Z,28.8332,-90.8320,32.01,11111222 
WAVCIS,ioos:station:WAVCIS:CSI15:1,2011-06-12T01:00:00Z,28.8332,-90.8320,31.83,11111222 
WAVCIS,ioos:station:WAVCIS:CSI15:1,2011-06-12T02:00:00Z,28.8332,-90.8320,31.82,11111222 
WAVCIS,ioos:station:WAVCIS:CSI15:1,2011-06-12T03:00:00Z,28.8332,-90.8320,31.64,11111222 
WAVCIS,ioos:station:WAVCIS:CSI15:1,2011-06-12T04:00:00Z,28.8332,-90.8320,31.63,11111222 